EW7356 Weather Reports


Display with metric or nautical units.
time (UTC)temp
F
wind
direction
speed
MPH
gust
MPH
rain 1hr
in
rain 24hr
in
rain mn
in
humidity
%
barometer
mb
20260509155530 43 171 4.0 9.0 0.03 0.05 0.05 91 1012.6
20260509155029 43 141 2.0 7.0 0.04 0.05 0.05 91 1012.7
20260509154541 43 151 1.0 5.0 0.04 0.05 0.05 91 1012.7
20260509154029 43 150 2.0 5.0 0.03 0.04 0.04 91 1012.8
20260509153531 43 157 1.0 6.0 0.03 0.04 0.04 90 1012.8
20260509153046 43 134 1.0 6.0 0.04 0.04 0.04 89 1013.0
20260509152529 43 0 1.0 9.0 0.03 0.03 0.03 89 1013.1
20260509152036 43 132 3.0 9.0 0.03 0.03 0.03 88 1013.0
20260509151539 43 150 0.0 6.0 0.02 0.02 0.02 88 1012.9
20260509151029 43 148 2.0 6.0 0.02 0.02 0.02 88 1012.9
20260509150527 43 151 1.0 6.0 0.02 0.02 0.02 89 1012.9
20260509150042 43 164 2.0 6.0 0.02 0.02 0.02 87 1012.8
20260509145529 43 147 2.0 8.0 0.02 0.02 0.02 86 1012.9
20260509145029 44 134 2.0 8.0 0.01 0.01 0.01 86 1012.8
20260509144549 44 156 2.0 8.0 0.01 0.01 0.01 86 1012.8
20260509144029 44 169 3.0 8.0 0.01 0.01 0.01 84 1012.7
20260509143528 44 144 3.0 7.0 0.01 0.01 0.01 83 1012.6
20260509143051 45 157 2.0 7.0 0.00 0.00 0.00 82 1012.7
20260509142531 45 148 3.0 7.0 0.00 0.00 0.00 78 1012.7
20260509142032 45 163 2.0 7.0 0.00 0.00 0.00 77 1012.7
20260509141540 46 167 1.0 9.0 0.00 0.00 0.00 75 1012.7
20260509141031 46 186 4.0 9.0 0.00 0.00 0.00 72 1012.6
20260509140532 47 163 3.0 7.0 0.00 0.00 0.00 69 1012.7
20260509140039 47 165 2.0 7.0 0.00 0.00 0.00 65 1012.7
20260509135529 48 155 3.0 7.0 0.00 0.00 0.00 61 1012.7
20260509135035 48 179 2.0 7.0 0.00 0.00 0.00 57 1012.6
20260509134557 48 173 2.0 7.0 0.00 0.00 0.00 56 1012.5
20260509134031 48 138 2.0 8.0 0.00 0.00 0.00 56 1012.6
20260509133531 48 134 2.0 8.0 0.00 0.00 0.00 55 1012.4
20260509133044 48 165 3.0 8.0 0.00 0.00 0.00 58 1012.4
20260509132530 48 147 2.0 7.0 0.00 0.00 0.00 57 1012.6
20260509132030 48 173 3.0 7.0 0.00 0.00 0.00 55 1012.4
20260509131540 48 180 3.0 7.0 0.00 0.00 0.00 55 1012.5
20260509131031 48 161 3.0 7.0 0.00 0.00 0.00 56 1012.5
20260509130535 48 180 3.0 8.0 0.00 0.00 0.00 59 1012.4
20260509130052 48 130 2.0 8.0 0.00 0.00 0.00 58 1012.4
20260509125531 48 144 0.0 4.0 0.00 0.00 0.00 63 1012.4
20260509125031 47 146 2.0 6.0 0.00 0.00 0.00 61 1012.5
20260509124538 47 157 2.0 8.0 0.00 0.00 0.00 60 1012.7
20260509124029 47 59 3.0 8.0 0.00 0.00 0.00 61 1012.6
20260509123529 46 129 2.0 6.0 0.00 0.00 0.00 65 1012.7
20260509123048 46 107 0.0 5.0 0.00 0.00 0.00 68 1012.7
20260509122530 45 145 0.0 5.0 0.00 0.00 0.00 69 1012.8
20260509122029 45 150 1.0 5.0 0.00 0.00 0.00 69 1012.7
20260509121601 44 0 0.0 3.0 0.00 0.00 0.00 69 1012.8
20260509121030 44 0 0.0 3.0 0.00 0.00 0.00 73 1012.9
20260509120534 43 71 0.0 3.0 0.00 0.00 0.00 73 1012.7
20260509120043 42 65 0.0 2.0 0.00 0.00 0.00 75 1012.8
20260509115531 41 0 0.0 3.0 0.00 0.00 0.00 77 1012.7
20260509115029 41 0 0.0 3.0 0.00 0.00 0.00 79 1012.8
20260509114541 40 39 1.0 3.0 0.00 0.00 0.00 80 1012.9
20260509114030 39 0 0.0 2.0 0.00 0.00 0.00 80 1013.0
20260509113530 39 0 0.0 2.0 0.00 0.00 0.00 81 1012.9
20260509113041 38 0 0.0 3.0 0.00 0.00 0.00 81 1013.1
20260509112529 38 177 1.0 3.0 0.00 0.00 0.00 83 1013.0
20260509112032 37 186 0.0 1.0 0.00 0.00 0.00 87 1013.0
20260509111556 36 0 0.0 0.0 0.00 0.00 0.00 87 1012.9
20260509111031 36 0 0.0 0.0 0.00 0.00 0.00 88 1012.9
20260509110530 36 0 0.0 0.0 0.00 0.00 0.00 90 1013.0
20260509110035 35 0 0.0 0.0 0.00 0.00 0.00 90 1013.0
20260509105530 35 0 0.0 0.0 0.00 0.00 0.00 90 1012.9
20260509105031 35 0 0.0 0.0 0.00 0.00 0.00 90 1013.0
20260509104544 34 0 0.0 0.0 0.00 0.00 0.00 90 1012.9
20260509104031 34 0 0.0 0.0 0.00 0.00 0.00 90 1012.9
20260509103527 34 0 0.0 0.0 0.00 0.00 0.00 90 1012.9
20260509103048 34 0 0.0 0.0 0.00 0.00 0.00 91 1012.9
20260509102532 33 0 0.0 0.0 0.00 0.00 0.00 91 1012.8
20260509102031 33 0 0.0 0.0 0.00 0.00 0.00 90 1012.8
20260509101611 33 0 0.0 0.0 0.00 0.00 0.00 89 1012.8
20260509101033 33 0 0.0 0.0 0.00 0.00 0.00 90 1012.6
20260509100535 33 0 0.0 0.0 0.00 0.00 0.00 90 1012.5
20260509100043 33 0 0.0 0.0 0.00 0.00 0.00 90 1012.5
20260509095531 33 0 0.0 0.0 0.00 0.00 0.00 91 1012.4
20260509095034 32 0 0.0 0.0 0.00 0.00 0.00 92 1012.3
20260509094544 32 0 0.0 0.0 0.00 0.00 0.00 92 1012.4
20260509094031 32 0 0.0 0.0 0.00 0.00 0.00 93 1012.4
20260509093532 31 0 0.0 0.0 0.00 0.00 0.00 92 1012.2
20260509093041 31 0 0.0 0.0 0.00 0.00 0.00 90 1012.2
20260509092530 31 0 0.0 0.0 0.00 0.00 0.00 89 1012.1
20260509092032 31 0 0.0 0.0 0.00 0.00 0.00 89 1011.9
20260509091544 31 0 0.0 3.0 0.00 0.00 0.00 90 1011.9
20260509091031 32 0 0.0 3.0 0.00 0.00 0.00 90 1011.9
20260509090532 31 44 1.0 3.0 0.00 0.00 0.00 90 1011.8
20260509090042 31 0 0.0 0.0 0.00 0.00 0.00 89 1011.8
20260509085530 31 0 0.0 0.0 0.00 0.00 0.00 88 1011.8
20260509085030 32 0 0.0 0.0 0.00 0.00 0.00 88 1011.8
20260509084540 32 0 0.0 0.0 0.00 0.00 0.00 88 1011.7
20260509084035 32 0 0.0 0.0 0.00 0.00 0.00 89 1011.7
20260509083530 32 0 0.0 0.0 0.00 0.00 0.00 89 1011.6
20260509083040 32 0 0.0 0.0 0.00 0.00 0.00 90 1011.7
20260509082530 32 0 0.0 0.0 0.00 0.00 0.00 90 1011.6
20260509082031 32 0 0.0 0.0 0.00 0.00 0.00 88 1011.6
20260509081544 32 0 0.0 0.0 0.00 0.00 0.00 87 1011.6
20260509081033 32 0 0.0 2.0 0.00 0.00 0.00 87 1011.6
20260509080530 32 0 0.0 2.0 0.00 0.00 0.00 88 1011.6
20260509080038 32 44 0.0 2.0 0.00 0.00 0.00 87 1011.5
20260509075530 33 0 0.0 1.0 0.00 0.00 0.00 86 1011.7
20260509075027 33 0 0.0 4.0 0.00 0.00 0.00 86 1011.6
20260509074545 33 0 2.0 4.0 0.00 0.00 0.00 86 1011.7
20260509074030 34 40 2.0 4.0 0.00 0.00 0.00 86 1011.7
20260509073530 34 340 1.0 3.0 0.00 0.00 0.00 86 1011.7
20260509073038 34 0 0.0 0.0 0.00 0.00 0.00 85 1011.9
20260509072527 34 0 0.0 0.0 0.00 0.00 0.00 83 1011.9
20260509072029 35 0 0.0 1.0 0.00 0.00 0.00 82 1011.9
20260509071550 35 0 0.0 1.0 0.00 0.00 0.00 82 1011.8
20260509071029 36 0 0.0 1.0 0.00 0.00 0.00 81 1011.8
20260509070529 36 0 0.0 2.0 0.00 0.00 0.00 81 1011.8
20260509070042 36 0 0.0 2.0 0.00 0.00 0.00 82 1011.8
20260509065529 36 290 0.0 3.0 0.00 0.00 0.00 82 1011.8
20260509065031 36 0 0.0 3.0 0.00 0.00 0.00 80 1011.9
20260509064546 37 277 1.0 3.0 0.00 0.00 0.00 81 1011.9
20260509064034 37 321 0.0 3.0 0.00 0.00 0.00 79 1011.9
20260509063529 37 319 1.0 3.0 0.00 0.00 0.00 81 1011.9
20260509063043 37 318 1.0 3.0 0.00 0.00 0.00 80 1012.0
20260509062531 37 315 1.0 3.0 0.00 0.00 0.00 80 1011.8
20260509062031 37 296 0.0 3.0 0.00 0.00 0.00 80 1011.9
20260509061534 37 271 1.0 2.0 0.00 0.00 0.00 80 1012.0
20260509061035 37 291 1.0 2.0 0.00 0.00 0.00 80 1012.1
20260509060530 37 289 0.0 2.0 0.00 0.00 0.00 80 1012.0
20260509060039 37 0 0.0 2.0 0.00 0.00 0.00 80 1012.0
20260509055527 37 0 0.0 2.0 0.00 0.00 0.00 80 1011.9
20260509055030 37 0 0.0 2.0 0.00 0.00 0.00 80 1011.9
20260509054548 38 0 0.0 2.0 0.00 0.00 0.00 79 1012.0
20260509054034 38 0 1.0 2.0 0.00 0.00 0.00 79 1011.9
20260509053531 38 293 0.0 2.0 0.00 0.00 0.00 77 1011.8
20260509053043 38 0 0.0 2.0 0.00 0.00 0.00 77 1011.9
20260509052531 38 293 1.0 4.0 0.00 0.00 0.00 77 1011.8
20260509052029 38 0 0.0 4.0 0.00 0.00 0.00 76 1011.8
20260509051541 38 282 1.0 2.0 0.00 0.00 0.00 76 1011.8
20260509051029 38 0 0.0 3.0 0.00 0.00 0.00 76 1011.7
20260509050529 38 0 0.0 3.0 0.00 0.00 0.00 75 1011.8
20260509050040 38 0 0.0 2.0 0.00 0.00 0.00 75 1011.7
20260509045532 39 0 0.0 2.0 0.00 0.00 0.00 75 1011.8
20260509045029 39 0 0.0 0.0 0.00 0.00 0.00 74 1011.6
20260509044536 39 0 0.0 0.0 0.00 0.00 0.00 74 1011.7
20260509044028 39 0 0.0 0.0 0.00 0.00 0.00 73 1011.6
20260509043526 39 0 0.0 0.0 0.00 0.00 0.00 73 1011.6
20260509043040 39 0 0.0 1.0 0.00 0.00 0.00 73 1011.6
20260509042531 39 0 0.0 2.0 0.00 0.00 0.00 73 1011.7
20260509042033 39 281 0.0 2.0 0.00 0.00 0.00 73 1011.6
20260509041607 39 281 0.0 2.0 0.00 0.00 0.00 73 1011.7
20260509041031 39 280 0.0 1.0 0.00 0.00 0.00 73 1011.7
20260509040531 39 0 0.0 0.0 0.00 0.00 0.00 73 1011.7
20260509040044 40 0 0.0 3.0 0.00 0.00 0.00 73 1011.7
20260509035529 40 0 0.0 3.0 0.00 0.00 0.00 72 1011.6
20260509035029 40 280 0.0 2.0 0.00 0.00 0.00 73 1011.7
20260509034539 40 0 0.0 3.0 0.00 0.00 0.00 73 1011.5
20260509034033 40 0 0.0 3.0 0.00 0.00 0.00 73 1011.5
20260509033533 40 276 0.0 3.0 0.00 0.00 0.00 72 1011.5
20260509033037 40 0 0.0 3.0 0.00 0.00 0.00 72 1011.4
20260509032527 40 0 0.0 3.0 0.00 0.00 0.00 72 1011.4
20260509032031 40 275 1.0 3.0 0.00 0.00 0.00 72 1011.3
20260509031544 40 257 1.0 3.0 0.00 0.00 0.00 72 1011.2
20260509031030 40 275 1.0 3.0 0.00 0.00 0.00 72 1011.2
20260509030529 40 270 0.0 3.0 0.00 0.00 0.00 72 1011.2
20260509030038 41 281 1.0 3.0 0.00 0.00 0.00 72 1011.2
20260509025529 41 277 1.0 3.0 0.00 0.00 0.00 71 1011.2
20260509025030 41 272 1.0 3.0 0.00 0.00 0.00 71 1011.1
20260509024539 41 275 0.0 2.0 0.00 0.00 0.00 71 1011.1
20260509024029 41 271 1.0 2.0 0.00 0.00 0.00 71 1011.1
20260509023529 41 0 0.0 2.0 0.00 0.00 0.00 70 1011.2
20260509023043 42 271 0.0 3.0 0.00 0.00 0.00 70 1011.0
20260509022529 42 269 0.0 3.0 0.00 0.00 0.00 69 1011.0
20260509022029 42 0 0.0 3.0 0.00 0.00 0.00 68 1011.0
20260509021543 42 0 0.0 2.0 0.00 0.00 0.00 68 1011.0
20260509021032 42 281 0.0 2.0 0.00 0.00 0.00 67 1010.9
20260509020528 43 0 0.0 3.0 0.00 0.00 0.00 67 1010.9
20260509020050 43 284 1.0 3.0 0.00 0.00 0.00 67 1010.8
20260509015527 43 0 1.0 3.0 0.00 0.00 0.00 66 1010.9
20260509015030 43 270 1.0 3.0 0.00 0.00 0.00 66 1010.8
20260509014541 43 272 0.0 4.0 0.00 0.00 0.00 65 1010.8
20260509014029 43 257 1.0 4.0 0.00 0.00 0.00 65 1010.7
20260509013529 43 257 2.0 3.0 0.00 0.00 0.00 65 1010.7
20260509013054 43 229 0.0 2.0 0.00 0.00 0.00 66 1010.7
20260509012532 44 0 0.0 2.0 0.00 0.00 0.00 65 1010.5
20260509012029 44 0 0.0 3.0 0.00 0.00 0.00 64 1010.4
20260509011538 44 0 0.0 3.0 0.00 0.00 0.00 64 1010.3
20260509011029 44 0 0.0 2.0 0.00 0.00 0.00 64 1010.1
20260509010532 45 0 0.0 3.0 0.00 0.00 0.00 64 1010.1
20260509010043 45 0 0.0 3.0 0.00 0.00 0.00 63 1009.9
20260509005529 45 257 0.0 3.0 0.00 0.00 0.00 62 1009.8
20260509005026 45 0 1.0 4.0 0.00 0.00 0.00 62 1009.7
20260509004542 45 247 1.0 5.0 0.00 0.00 0.00 61 1009.6
20260509004034 46 224 2.0 5.0 0.00 0.00 0.00 61 1009.4
20260509003531 46 0 2.0 9.0 0.00 0.00 0.00 61 1009.4
20260509003039 46 213 1.0 9.0 0.00 0.00 0.00 60 1009.3
20260509002530 46 281 4.0 8.0 0.00 0.00 0.00 59 1009.3
20260509002030 46 273 3.0 9.0 0.00 0.00 0.00 60 1009.2
20260509001539 46 247 3.0 9.0 0.00 0.00 0.00 59 1009.2
20260509001030 47 257 4.0 9.0 0.00 0.00 0.00 59 1009.2
20260509000530 47 300 3.0 9.0 0.00 0.00 0.00 59 1009.1
20260509000038 47 279 3.0 9.0 0.00 0.00 0.00 59 1009.0
20260508235530 47 254 3.0 10.0 0.00 0.00 0.00 59 1009.0
20260508235030 47 250 3.0 10.0 0.00 0.00 0.00 59 1008.9
20260508234541 47 250 3.0 9.0 0.00 0.00 0.00 58 1008.8
20260508234030 47 254 3.0 10.0 0.00 0.00 0.00 57 1008.8
20260508233527 47 286 6.0 12.0 0.00 0.00 0.00 57 1008.7
20260508233040 47 215 5.0 12.0 0.00 0.00 0.00 56 1008.7
20260508232530 48 257 5.0 17.0 0.00 0.00 0.00 55 1008.7
20260508232030 48 227 5.0 17.0 0.00 0.00 0.00 54 1008.6
20260508231539 48 282 4.0 10.0 0.00 0.00 0.00 53 1008.5
20260508231033 48 191 5.0 12.0 0.00 0.00 0.00 52 1008.4
20260508230530 49 186 5.0 12.0 0.00 0.00 0.00 51 1008.4
20260508230045 49 276 3.0 8.0 0.00 0.00 0.00 48 1008.4
20260508225530 49 257 2.0 7.0 0.00 0.00 0.00 43 1008.3
20260508225030 49 248 1.0 4.0 0.00 0.00 0.00 43 1008.3
20260508224538 49 269 1.0 4.0 0.00 0.00 0.00 43 1008.2
20260508224030 50 271 0.0 4.0 0.00 0.00 0.00 44 1008.2
20260508223532 50 318 1.0 6.0 0.00 0.00 0.00 42 1008.1
20260508223043 50 340 1.0 8.0 0.00 0.00 0.00 40 1008.1
20260508222530 50 342 3.0 8.0 0.00 0.00 0.00 40 1008.1
20260508222026 50 347 3.0 7.0 0.00 0.00 0.00 41 1008.1
20260508221538 50 290 2.0 7.0 0.00 0.00 0.00 42 1008.1
20260508221027 51 329 1.0 7.0 0.00 0.00 0.00 42 1008.1
20260508220529 51 265 3.0 7.0 0.00 0.00 0.00 41 1008.1
20260508220041 51 289 1.0 8.0 0.00 0.00 0.00 42 1008.0
20260508215531 50 239 1.0 8.0 0.00 0.00 0.00 42 1008.0
20260508215029 50 269 2.0 7.0 0.00 0.00 0.00 42 1007.9
20260508214538 51 273 2.0 6.0 0.00 0.00 0.00 41 1008.0
20260508214029 51 332 1.0 8.0 0.00 0.00 0.00 44 1007.9
20260508213528 51 336 2.0 8.0 0.00 0.00 0.00 41 1007.9
20260508213039 51 352 2.0 10.0 0.00 0.00 0.00 41 1007.9
20260508212527 51 259 3.0 10.0 0.00 0.00 0.00 43 1007.9
20260508212029 51 296 4.0 16.0 0.00 0.00 0.00 40 1008.0
20260508211541 51 293 9.0 16.0 0.00 0.00 0.00 38 1007.8
20260508211028 51 239 4.0 16.0 0.00 0.00 0.00 37 1007.8
20260508210528 52 250 7.0 16.0 0.00 0.00 0.00 37 1007.7
20260508210041 51 267 7.0 14.0 0.00 0.00 0.00 38 1007.8
20260508205527 51 320 2.0 8.0 0.00 0.00 0.00 42 1007.6
20260508205029 50 266 2.0 10.0 0.00 0.00 0.00 43 1007.7
20260508204544 50 5 2.0 10.0 0.00 0.00 0.00 42 1007.6
20260508204032 50 237 3.0 10.0 0.00 0.00 0.00 40 1007.5
20260508203529 50 360 3.0 11.0 0.00 0.00 0.00 43 1007.6
20260508203040 51 338 5.0 11.0 0.00 0.00 0.00 41 1007.5
20260508202531 51 274 4.0 11.0 0.00 0.00 0.00 42 1007.4
20260508202028 50 301 3.0 10.0 0.00 0.00 0.00 42 1007.4
20260508201543 50 328 4.0 9.0 0.00 0.00 0.00 43 1007.4
20260508201028 50 258 3.0 8.0 0.00 0.00 0.00 42 1007.4
20260508200528 50 267 3.0 9.0 0.00 0.00 0.00 42 1007.4
20260508200055 50 265 4.0 9.0 0.00 0.00 0.00 43 1007.5
20260508195528 50 318 2.0 17.0 0.00 0.00 0.00 42 1007.4
20260508195029 51 302 6.0 17.0 0.00 0.00 0.00 40 1007.6
20260508194538 52 19 5.0 15.0 0.00 0.00 0.00 40 1007.5
20260508194029 52 259 2.0 15.0 0.00 0.00 0.00 40 1007.4
20260508193528 52 232 6.0 14.0 0.00 0.00 0.00 41 1007.5
20260508193048 52 342 3.0 13.0 0.00 0.00 0.00 47 1007.5
20260508192531 51 248 5.0 14.0 0.00 0.00 0.00 44 1007.6
20260508192029 50 308 3.0 14.0 0.00 0.00 0.00 45 1007.7
20260508191538 50 322 5.0 13.0 0.00 0.00 0.00 44 1007.5
20260508191029 50 327 6.0 14.0 0.00 0.00 0.00 41 1007.6
20260508190529 50 257 8.0 14.0 0.00 0.00 0.00 42 1007.4
20260508190034 50 244 5.0 13.0 0.00 0.00 0.00 40 1007.5
20260508185528 50 291 7.0 12.0 0.00 0.00 0.00 41 1007.5
20260508185031 50 225 5.0 12.0 0.00 0.00 0.00 40 1007.5
20260508184538 50 263 5.0 11.0 0.00 0.00 0.00 42 1007.5
20260508184026 50 280 4.0 10.0 0.00 0.00 0.00 42 1007.6
20260508183527 50 0 4.0 11.0 0.00 0.00 0.00 42 1007.5
20260508183052 51 346 4.0 13.0 0.00 0.00 0.00 43 1007.7
20260508182527 51 347 4.0 14.0 0.00 0.00 0.00 43 1007.6
20260508182026 51 70 4.0 14.0 0.00 0.00 0.00 49 1007.7
20260508181546 51 281 5.0 14.0 0.00 0.00 0.00 42 1007.8
20260508181026 51 305 5.0 13.0 0.00 0.00 0.00 42 1007.8
20260508180529 50 259 3.0 13.0 0.00 0.00 0.00 45 1007.8
20260508180038 50 234 5.0 16.0 0.00 0.00 0.00 43 1007.9
20260508175528 51 265 7.0 16.0 0.00 0.00 0.00 43 1007.8
20260508175028 51 188 5.0 17.0 0.00 0.00 0.00 42 1007.8
20260508174536 51 284 6.0 17.0 0.00 0.00 0.00 42 1007.7
20260508174029 52 333 6.0 15.0 0.00 0.00 0.00 43 1007.8
20260508173528 52 252 5.0 15.0 0.00 0.00 0.00 46 1007.8
20260508173039 51 275 7.0 15.0 0.00 0.00 0.00 42 1007.8
20260508172532 51 352 5.0 14.0 0.00 0.00 0.00 47 1007.9
20260508172027 50 210 5.0 14.0 0.00 0.00 0.00 44 1007.9
20260508171542 49 255 6.0 15.0 0.00 0.00 0.00 44 1008.0
20260508171027 49 238 5.0 15.0 0.00 0.00 0.00 43 1008.0
20260508170526 49 259 3.0 15.0 0.00 0.00 0.00 45 1008.0
20260508170042 49 261 4.0 15.0 0.00 0.00 0.00 43 1008.0
20260508165528 49 250 5.0 15.0 0.00 0.00 0.00 44 1007.9
20260508165026 49 5 5.0 14.0 0.00 0.00 0.00 44 1007.9
20260508164545 49 269 7.0 14.0 0.00 0.00 0.00 42 1007.8
20260508164028 49 341 6.0 14.0 0.00 0.00 0.00 43 1007.9
20260508163528 49 288 5.0 16.0 0.00 0.00 0.00 43 1007.8
20260508163035 48 267 4.0 16.0 0.00 0.00 0.00 44 1007.8
20260508162527 48 239 8.0 16.0 0.00 0.00 0.00 42 1007.8
20260508162029 49 316 5.0 15.0 0.00 0.00 0.00 46 1007.8
20260508161539 49 268 6.0 17.0 0.00 0.00 0.00 41 1007.6
20260508161029 49 297 9.0 17.0 0.00 0.00 0.00 41 1007.7
20260508160526 50 269 8.0 17.0 0.00 0.00 0.00 42 1007.5
20260508160041 50 338 5.0 13.0 0.00 0.00 0.00 40 1007.5